Location: Kumla
(59.1265°N, 15.1401°E)
Time: 18:39:18
(UTC+01:00)

Vanguard 1 Rocket - Pass Details

Date: 12 December 2023
Orbit: 654 x 4218 km, 34.3° (Epoch: 21 February)

Event Time Altitude Azimuth Distance (km) Brightness Sun altitude
Rises 02:10:47 0° 206° (SSW) 8,419 - -46.5°
Reaches altitude 10° 02:18:47 10° 195° (SSW) 7,403 - -45.7°
Exits shadow 02:27:49 20° 176° (S) 6,363 11.4 -44.8°
Maximum altitude 02:35:08 23° 154° (SSE) 5,756 11.3 -44.0°
Drops below altitude 10° 02:47:58 10° 112° (ESE) 5,772 11.8 -42.6°
Sets 02:52:58 0° 99° (E) 6,255 12.2 -42.0°
